| time (UTC) | temp C | wind direction | speed KPH | gust KPH | rain 1hr cm | rain 24hr cm | rain mn cm | humidity % | barometer mb |
| 20260503190733 | 15 | 5 | 8.0 | 32.2 | 0.00 | 0.00 | 0.00 | 37 | 1010.8 |
| 20260503190221 | 15 | 304 | 11.3 | 32.2 | 0.00 | 0.00 | 0.00 | 38 | 1010.9 |
| 20260503185733 | 15 | 325 | 17.7 | 25.7 | 0.00 | 0.00 | 0.00 | 37 | 1010.9 |
| 20260503185222 | 15 | 274 | 6.4 | 24.1 | 0.00 | 0.00 | 0.00 | 39 | 1010.9 |
| 20260503184739 | 15 | 309 | 11.3 | 24.1 | 0.00 | 0.00 | 0.00 | 40 | 1011.1 |
| 20260503184230 | 15 | 261 | 12.9 | 20.9 | 0.00 | 0.00 | 0.00 | 39 | 1011.1 |
| 20260503183741 | 15 | 340 | 8.0 | 20.9 | 0.00 | 0.00 | 0.00 | 40 | 1011.1 |
| 20260503183231 | 15 | 270 | 9.7 | 20.9 | 0.00 | 0.00 | 0.00 | 40 | 1011.2 |
| 20260503182737 | 14 | 280 | 9.7 | 9.7 | 0.00 | 0.00 | 0.00 | 39 | 1011.2 |
| 20260503182225 | 14 | 63 | 6.4 | 6.4 | 0.00 | 0.00 | 0.00 | 43 | 1011.4 |
| 20260503181740 | 13 | 283 | 3.2 | 3.2 | 0.00 | 0.00 | 0.00 | 41 | 1011.4 |
| 20260503181229 | 13 | 296 | 14.5 | 14.5 | 0.00 | 0.00 | 0.00 | 40 | 1011.4 |
| 20260503180740 | 13 | 224 | 6.4 | 6.4 | 0.00 | 0.00 | 0.00 | 42 | 1011.4 |
| 20260503180231 | 13 | 289 | 8.0 | 8.0 | 0.00 | 0.00 | 0.00 | 45 | 1011.4 |
| 20260503175727 | 13 | 259 | 1.6 | 1.6 | 0.00 | 0.00 | 0.00 | 41 | 1011.4 |
| 20260503175237 | 13 | 274 | 1.6 | 20.9 | 0.00 | 0.00 | 0.00 | 45 | 1011.4 |
| 20260503174802 | 12 | 276 | 20.9 | 20.9 | 0.00 | 0.00 | 0.00 | 45 | 1011.4 |
| 20260503174303 | 12 | 267 | 19.3 | 19.3 | 0.00 | 0.00 | 0.00 | 44 | 1011.5 |
| 20260503173743 | 13 | 302 | 9.7 | 9.7 | 0.00 | 0.00 | 0.00 | 42 | 1011.5 |
| 20260503173229 | 13 | 294 | 9.7 | 12.9 | 0.00 | 0.00 | 0.00 | 43 | 1011.4 |
| 20260503172751 | 13 | 270 | 12.9 | 12.9 | 0.00 | 0.00 | 0.00 | 43 | 1011.5 |
| 20260503172252 | 13 | 323 | 3.2 | 3.2 | 0.00 | 0.00 | 0.00 | 46 | 1011.5 |
| 20260503171732 | 13 | 315 | 3.2 | 11.3 | 0.00 | 0.00 | 0.00 | 44 | 1011.6 |
| 20260503171235 | 12 | 277 | 11.3 | 11.3 | 0.00 | 0.00 | 0.00 | 44 | 1011.6 |
| 20260503170722 | 12 | 292 | 9.7 | 9.7 | 0.00 | 0.00 | 0.00 | 44 | 1011.5 |
| 20260503170256 | 12 | 304 | 6.4 | 8.0 | 0.00 | 0.00 | 0.00 | 44 | 1011.5 |
| 20260503150758 | 11 | 355 | 12.9 | 17.7 | 0.00 | 0.00 | 0.00 | 51 | 1012.1 |
| 20260503150301 | 11 | 13 | 17.7 | 17.7 | 0.00 | 0.00 | 0.00 | 50 | 1012.2 |
| 20260503140221 | 10 | 295 | 6.4 | 6.4 | 0.00 | 0.00 | 0.00 | 51 | 1012.1 |
| 20260503130729 | 9 | 331 | 8.0 | 12.9 | 0.00 | 0.00 | 0.00 | 57 | 1011.9 |